LINK (42714 NORAD) Tracking and Keplerian Element Data

This shows tracking and keplerian element data for the satellite.

Feedback or suggestion? Click here.




ElementValue
Catalog42714
NameLINK
Epoch Orbit7735
Epoch Day265.92001965
Epoch Year2018
RAAN192.6696
Inclination51.6396
Eccentricity0.0007557
Argument of Perigee179.7176
Mean Anonmoly180.2695
Mean Motion16.36256502
Decay Rate0.06744984
L11 42714U 98067LV 18265.92001965 .06744984 12188-4 74906-3 0 9997
L22 42714 51.6396 192.6696 0007557 179.7176 180.2695 16.36256502 77350



Live tracking and technical data element details for LINK (NORAD 42714). LINK can be tracked NOW for your location showing map with azimuth and elevation plus other details from your city location.







IsCatalogInMostPopularTable: catalog: 42714, numindb: 684
Update: records affected: 1



GetName: 42714 LINK

Hit Count: updated at: Wed, 30 Apr 2025 17:08:07 GMT